GPS BIIR-13 (PRN 02)

Last updated on Tue Dec 16 2025 00:03:18 GMT+0000 (Coordinated Universal Time)

1 28474U 04045A 25349.37192497 -.00000091 00000+0 00000+0 0 9992 2 28474 55.2393 332.2998 0170817 309.3676 83.5283 2.00569721154740
UTC large
Height (km)
Speed (km/s)
/
Latitude / Longitude
Inclination (degrees)
Orbital Period (minutes)
Azimuth
Elevation
Range (km)
Doppler Factor

Next 0 passes for location: London (51.5072 / 0.1276)

Sorry there are no passes over London.